Time,TemperatureF,DewpointF,PressureIn,WindDirection,WindDirectionDegrees,WindSpeedMPH,WindSpeedGustMPH,Humidity,HourlyPrecipIn,Conditions,Clouds,dailyrainin,SoftwareType,DateUTC
2013-02-04 00:03:00,29.1,-2.3,31.00,North,0,0.0,0.0,25,0.00,,,0.00,Weather View 32 v70,2013-02-04 07:03:00,
2013-02-04 00:08:00,28.6,-2.8,31.00,North,0,0.0,0.0,25,0.00,,,0.00,Weather View 32 v70,2013-02-04 07:08:00,
2013-02-04 00:13:00,28.6,-4.5,31.00,North,0,0.0,0.0,23,0.00,,,0.00,Weather View 32 v70,2013-02-04 07:13:00,
2013-02-04 00:18:00,28.6,-4.5,31.00,North,0,0.0,0.0,23,0.00,,,0.00,Weather View 32 v70,2013-02-04 07:18:00,
2013-02-04 00:23:00,28.6,-4.5,31.00,North,0,0.0,0.0,23,0.00,,,0.00,Weather View 32 v70,2013-02-04 07:23:00,
2013-02-04 00:28:00,29.7,-3.6,31.00,North,0,0.0,0.0,23,0.00,,,0.00,Weather View 32 v70,2013-02-04 07:28:00,
2013-02-04 00:33:00,29.1,-4.1,31.00,North,0,0.0,0.0,23,0.00,,,0.00,Weather View 32 v70,2013-02-04 07:33:00,
2013-02-04 00:38:00,28.4,-4.7,31.00,North,0,0.0,0.0,23,0.00,,,0.00,Weather View 32 v70,2013-02-04 07:38:00,
2013-02-04 00:43:00,28.4,-2.1,31.00,North,0,0.0,0.0,26,0.00,,,0.00,Weather View 32 v70,2013-02-04 07:43:00,
2013-02-04 00:48:00,28.0,-5.0,31.00,North,0,0.0,0.0,23,0.00,,,0.00,Weather View 32 v70,2013-02-04 07:48:00,
2013-02-04 00:53:00,28.4,-4.7,31.00,North,0,0.0,0.0,23,0.00,,,0.00,Weather View 32 v70,2013-02-04 07:53:00,
2013-02-04 00:58:00,29.3,-3.9,31.00,North,0,0.0,0.0,23,0.00,,,0.00,Weather View 32 v70,2013-02-04 07:58:00,
2013-02-04 01:03:00,29.5,-3.8,31.00,North,0,0.0,0.0,23,0.00,,,0.00,Weather View 32 v70,2013-02-04 08:03:00,
2013-02-04 01:08:00,29.7,-3.6,31.00,North,0,0.0,0.0,23,0.00,,,0.00,Weather View 32 v70,2013-02-04 08:08:00,
2013-02-04 01:13:00,29.5,-3.8,31.00,North,0,0.0,0.0,23,0.00,,,0.00,Weather View 32 v70,2013-02-04 08:13:00,
2013-02-04 01:18:00,28.9,-4.2,31.00,North,0,0.0,0.0,23,0.00,,,0.00,Weather View 32 v70,2013-02-04 08:18:00,
2013-02-04 01:23:00,29.1,-4.1,31.00,North,0,0.0,0.0,23,0.00,,,0.00,Weather View 32 v70,2013-02-04 08:23:00,
2013-02-04 01:28:00,28.6,-2.8,31.00,North,0,0.0,0.0,25,0.00,,,0.00,Weather View 32 v70,2013-02-04 08:28:00,
2013-02-04 01:33:00,27.7,-2.8,31.00,North,0,0.0,0.0,26,0.00,,,0.00,Weather View 32 v70,2013-02-04 08:33:00,
2013-02-04 01:38:00,27.7,-5.3,31.00,North,0,0.0,0.0,23,0.00,,,0.00,Weather View 32 v70,2013-02-04 08:38:00,
2013-02-04 01:43:00,28.2,-2.3,31.00,North,0,0.0,0.0,26,0.00,,,0.00,Weather View 32 v70,2013-02-04 08:43:00,
2013-02-04 01:48:00,28.2,-2.3,31.00,North,0,0.0,0.0,26,0.00,,,0.00,Weather View 32 v70,2013-02-04 08:48:00,
2013-02-04 01:53:00,28.2,-2.3,31.00,North,0,0.0,0.0,26,0.00,,,0.00,Weather View 32 v70,2013-02-04 08:53:00,
2013-02-04 01:58:00,27.9,-2.6,31.00,North,0,0.0,0.0,26,0.00,,,0.00,Weather View 32 v70,2013-02-04 08:58:00,
2013-02-04 02:03:00,27.5,-2.9,31.00,North,0,0.0,0.0,26,0.00,,,0.00,Weather View 32 v70,2013-02-04 09:03:00,
2013-02-04 02:08:00,29.1,-2.3,31.00,SSE,148,0.0,8.0,25,0.00,,,0.00,Weather View 32 v70,2013-02-04 09:08:00,
2013-02-04 02:13:00,28.8,-2.7,31.00,South,190,0.0,8.0,25,0.00,,,0.00,Weather View 32 v70,2013-02-04 09:13:00,
2013-02-04 02:18:00,28.6,-2.8,31.00,West,276,8.0,8.0,25,0.00,,,0.00,Weather View 32 v70,2013-02-04 09:18:00,
2013-02-04 02:23:00,28.6,-2.8,31.00,East,85,0.0,8.0,25,0.00,,,0.00,Weather View 32 v70,2013-02-04 09:23:00,
2013-02-04 02:28:00,28.8,-2.7,31.00,South,191,0.0,8.0,25,0.00,,,0.00,Weather View 32 v70,2013-02-04 09:28:00,
2013-02-04 02:33:00,28.6,-2.8,31.00,West,270,0.0,8.0,25,0.00,,,0.00,Weather View 32 v70,2013-02-04 09:33:00,
2013-02-04 02:38:00,28.8,-2.7,31.00,North,8,4.0,8.0,25,0.00,,,0.00,Weather View 32 v70,2013-02-04 09:38:00,
2013-02-04 02:43:00,28.8,-2.7,31.00,South,178,8.0,8.0,25,0.00,,,0.00,Weather View 32 v70,2013-02-04 09:43:00,
2013-02-04 02:48:00,28.8,-2.7,31.00,SSE,151,8.0,8.0,25,0.00,,,0.00,Weather View 32 v70,2013-02-04 09:48:00,
2013-02-04 02:53:00,28.8,-2.7,31.00,East,93,5.0,8.0,25,0.00,,,0.00,Weather View 32 v70,2013-02-04 09:53:00,
2013-02-04 02:58:00,28.6,-2.8,31.00,North,0,0.0,8.0,25,0.00,,,0.00,Weather View 32 v70,2013-02-04 09:58:00,
2013-02-04 03:03:00,28.4,-2.1,31.00,North,0,0.0,8.0,26,0.00,,,0.00,Weather View 32 v70,2013-02-04 10:03:00,
2013-02-04 03:08:00,28.9,-2.5,31.00,North,0,0.0,8.0,25,0.00,,,0.00,Weather View 32 v70,2013-02-04 10:08:00,
2013-02-04 03:13:00,28.4,-2.1,31.00,North,0,0.0,8.0,26,0.00,,,0.00,Weather View 32 v70,2013-02-04 10:13:00,
2013-02-04 03:18:00,28.2,-2.3,31.00,North,0,0.0,8.0,26,0.00,,,0.00,Weather View 32 v70,2013-02-04 10:18:00,
2013-02-04 03:23:00,28.6,-2.8,31.00,North,0,0.0,8.0,25,0.00,,,0.00,Weather View 32 v70,2013-02-04 10:23:00,
2013-02-04 03:28:00,28.9,-2.5,31.00,North,0,0.0,8.0,25,0.00,,,0.00,Weather View 32 v70,2013-02-04 10:28:00,
2013-02-04 03:33:00,29.1,-2.3,31.00,North,0,0.0,8.0,25,0.00,,,0.00,Weather View 32 v70,2013-02-04 10:33:00,
2013-02-04 03:38:00,29.5,-2.0,31.00,North,0,0.0,8.0,25,0.00,,,0.00,Weather View 32 v70,2013-02-04 10:38:00,
2013-02-04 03:43:00,29.3,-2.2,31.00,North,0,0.0,8.0,25,0.00,,,0.00,Weather View 32 v70,2013-02-04 10:43:00,
2013-02-04 03:48:00,28.6,-2.8,31.00,North,0,0.0,8.0,25,0.00,,,0.00,Weather View 32 v70,2013-02-04 10:48:00,
2013-02-04 03:53:00,28.8,-2.7,31.00,North,0,0.0,5.0,25,0.00,,,0.00,Weather View 32 v70,2013-02-04 10:53:00,
2013-02-04 03:58:00,28.6,-2.8,31.00,North,0,0.0,5.0,25,0.00,,,0.00,Weather View 32 v70,2013-02-04 10:58:00,
2013-02-04 04:03:00,28.4,-2.1,31.00,North,0,0.0,0.0,26,0.00,,,0.00,Weather View 32 v70,2013-02-04 11:03:00,
2013-02-04 04:08:00,28.4,-2.1,31.00,North,0,0.0,0.0,26,0.00,,,0.00,Weather View 32 v70,2013-02-04 11:08:00,
2013-02-04 04:13:00,28.0,-0.9,31.00,North,0,0.0,0.0,28,0.00,,,0.00,Weather View 32 v70,2013-02-04 11:13:00,
2013-02-04 04:18:00,28.9,-2.5,31.00,North,0,0.0,0.0,25,0.00,,,0.00,Weather View 32 v70,2013-02-04 11:18:00,
2013-02-04 04:23:00,29.5,-3.8,31.00,SW,214,2.0,2.0,23,0.00,,,0.00,Weather View 32 v70,2013-02-04 11:23:00,
2013-02-04 04:28:00,29.5,-3.8,31.00,North,0,0.0,2.0,23,0.00,,,0.00,Weather View 32 v70,2013-02-04 11:28:00,
2013-02-04 04:33:00,29.5,-2.0,31.00,North,0,0.0,2.0,25,0.00,,,0.00,Weather View 32 v70,2013-02-04 11:33:00,
2013-02-04 04:38:00,29.1,-2.3,31.00,North,0,0.0,2.0,25,0.00,,,0.00,Weather View 32 v70,2013-02-04 11:38:00,
2013-02-04 04:42:00,28.8,-4.4,31.00,North,0,0.0,2.0,23,0.00,,,0.00,Weather View 32 v70,2013-02-04 11:42:00,
2013-02-04 04:48:00,29.3,-2.2,31.00,North,0,0.0,2.0,25,0.00,,,0.00,Weather View 32 v70,2013-02-04 11:48:00,
2013-02-04 04:52:00,29.5,-3.8,31.00,North,0,0.0,2.0,23,0.00,,,0.00,Weather View 32 v70,2013-02-04 11:52:00,
2013-02-04 04:57:00,29.8,-3.5,31.00,North,0,0.0,2.0,23,0.00,,,0.00,Weather View 32 v70,2013-02-04 11:57:00,
2013-02-04 05:02:00,30.2,-3.2,31.00,North,0,0.0,2.0,23,0.00,,,0.00,Weather View 32 v70,2013-02-04 12:02:00,
2013-02-04 05:07:00,29.8,-1.7,31.00,North,0,0.0,2.0,25,0.00,,,0.00,Weather View 32 v70,2013-02-04 12:07:00,
2013-02-04 05:12:00,29.8,-3.5,31.00,North,0,0.0,2.0,23,0.00,,,0.00,Weather View 32 v70,2013-02-04 12:12:00,
2013-02-04 05:17:00,29.7,-3.6,31.00,North,0,0.0,2.0,23,0.00,,,0.00,Weather View 32 v70,2013-02-04 12:17:00,
2013-02-04 05:22:00,29.1,-4.1,31.00,North,0,0.0,2.0,23,0.00,,,0.00,Weather View 32 v70,2013-02-04 12:22:00,
2013-02-04 05:28:00,28.8,-4.4,31.00,North,0,0.0,0.0,23,0.00,,,0.00,Weather View 32 v70,2013-02-04 12:28:00,
2013-02-04 05:33:00,28.6,-2.8,31.00,North,0,0.0,0.0,25,0.00,,,0.00,Weather View 32 v70,2013-02-04 12:33:00,
2013-02-04 05:37:00,28.8,-4.4,31.00,North,0,0.0,0.0,23,0.00,,,0.00,Weather View 32 v70,2013-02-04 12:37:00,
2013-02-04 05:42:00,28.6,-2.8,31.00,North,0,0.0,0.0,25,0.00,,,0.00,Weather View 32 v70,2013-02-04 12:42:00,
2013-02-04 05:48:00,28.8,-2.7,31.00,North,0,0.0,0.0,25,0.00,,,0.00,Weather View 32 v70,2013-02-04 12:48:00,
2013-02-04 05:53:00,29.7,-3.6,31.00,North,0,0.0,0.0,23,0.00,,,0.00,Weather View 32 v70,2013-02-04 12:53:00,
2013-02-04 05:58:00,30.0,-1.6,31.00,North,0,0.0,0.0,25,0.00,,,0.00,Weather View 32 v70,2013-02-04 12:58:00,
2013-02-04 06:03:00,30.2,-3.2,31.00,North,0,0.0,0.0,23,0.00,,,0.00,Weather View 32 v70,2013-02-04 13:03:00,
2013-02-04 06:08:00,30.2,-3.2,31.00,North,0,0.0,0.0,23,0.00,,,0.00,Weather View 32 v70,2013-02-04 13:08:00,
2013-02-04 06:13:00,30.0,-3.3,31.00,North,0,0.0,0.0,23,0.00,,,0.00,Weather View 32 v70,2013-02-04 13:13:00,
2013-02-04 06:18:00,30.2,-3.2,31.00,North,0,0.0,0.0,23,0.00,,,0.00,Weather View 32 v70,2013-02-04 13:18:00,
2013-02-04 06:23:00,30.6,-2.9,31.00,North,0,0.0,0.0,23,0.00,,,0.00,Weather View 32 v70,2013-02-04 13:23:00,
2013-02-04 06:28:00,30.6,-2.9,31.00,North,0,0.0,0.0,23,0.00,,,0.00,Weather View 32 v70,2013-02-04 13:28:00,
2013-02-04 06:32:00,30.9,-2.6,31.00,North,0,0.0,0.0,23,0.00,,,0.00,Weather View 32 v70,2013-02-04 13:32:00,
2013-02-04 06:37:00,31.1,-2.4,31.00,North,0,0.0,0.0,23,0.00,,,0.00,Weather View 32 v70,2013-02-04 13:37:00,
2013-02-04 06:42:00,31.1,-2.4,31.00,SW,219,5.0,0.0,23,0.00,,,0.00,Weather View 32 v70,2013-02-04 13:42:00,
2013-02-04 06:47:00,31.3,-2.3,31.00,North,0,0.0,5.0,23,0.00,,,0.00,Weather View 32 v70,2013-02-04 13:47:00,
2013-02-04 06:52:00,31.5,-2.1,31.00,South,191,0.0,5.0,23,0.00,,,0.00,Weather View 32 v70,2013-02-04 13:52:00,
2013-02-04 06:57:00,31.8,-1.8,31.00,North,0,0.0,5.0,23,0.00,,,0.00,Weather View 32 v70,2013-02-04 13:57:00,
2013-02-04 07:02:00,31.6,-1.9,31.00,North,0,0.0,5.0,23,0.00,,,0.00,Weather View 32 v70,2013-02-04 14:02:00,
2013-02-04 07:07:00,31.5,-2.1,31.00,North,0,0.0,5.0,23,0.00,,,0.00,Weather View 32 v70,2013-02-04 14:07:00,
2013-02-04 07:12:00,31.6,-1.9,31.00,North,0,0.0,5.0,23,0.00,,,0.00,Weather View 32 v70,2013-02-04 14:12:00,
2013-02-04 07:17:00,31.1,-2.4,31.00,NW,312,0.0,5.0,23,0.00,,,0.00,Weather View 32 v70,2013-02-04 14:17:00,
2013-02-04 07:22:00,31.5,-2.1,31.00,WSW,241,0.0,5.0,23,0.00,,,0.00,Weather View 32 v70,2013-02-04 14:22:00,
2013-02-04 07:27:00,31.8,-1.8,31.00,SW,219,0.0,5.0,23,0.00,,,0.00,Weather View 32 v70,2013-02-04 14:27:00,
2013-02-04 07:32:00,32.0,-1.6,31.00,SSE,162,0.0,5.0,23,0.00,,,0.00,Weather View 32 v70,2013-02-04 14:32:00,
2013-02-04 07:37:00,32.2,-1.5,31.00,North,0,0.0,5.0,23,0.00,,,0.00,Weather View 32 v70,2013-02-04 14:37:00,
2013-02-04 07:42:00,32.5,-1.2,31.00,SE,141,6.0,6.0,23,0.00,,,0.00,Weather View 32 v70,2013-02-04 14:42:00,
2013-02-04 07:47:00,32.7,-1.0,31.00,SW,218,0.0,6.0,23,0.00,,,0.00,Weather View 32 v70,2013-02-04 14:47:00,
2013-02-04 07:52:00,33.3,-0.6,31.00,SSE,152,2.0,6.0,23,0.00,,,0.00,Weather View 32 v70,2013-02-04 14:52:00,
2013-02-04 07:58:00,33.6,-0.3,31.00,East,101,0.0,6.0,23,0.00,,,0.00,Weather View 32 v70,2013-02-04 14:58:00,
2013-02-04 08:03:00,34.0,-0.9,31.00,SSE,168,3.0,6.0,22,0.00,,,0.00,Weather View 32 v70,2013-02-04 15:03:00,
2013-02-04 08:08:00,34.3,-0.6,31.00,South,190,4.0,15.0,22,0.00,,,0.00,Weather View 32 v70,2013-02-04 15:08:00,
2013-02-04 08:13:00,34.5,-0.4,31.00,SSW,204,4.0,15.0,22,0.00,,,0.00,Weather View 32 v70,2013-02-04 15:13:00,
2013-02-04 08:18:00,34.5,-0.4,31.00,SW,225,0.0,15.0,22,0.00,,,0.00,Weather View 32 v70,2013-02-04 15:18:00,
2013-02-04 08:23:00,34.5,-0.4,31.00,SSE,158,0.0,15.0,22,0.00,,,0.00,Weather View 32 v70,2013-02-04 15:23:00,
2013-02-04 08:27:00,34.7,-0.3,31.00,SW,219,3.0,15.0,22,0.00,,,0.00,Weather View 32 v70,2013-02-04 15:27:00,
2013-02-04 08:32:00,34.5,-0.4,31.00,SW,217,0.0,15.0,22,0.00,,,0.00,Weather View 32 v70,2013-02-04 15:32:00,
2013-02-04 08:38:00,34.3,-0.6,31.00,ESE,104,0.0,15.0,22,0.00,,,0.00,Weather View 32 v70,2013-02-04 15:38:00,
2013-02-04 08:43:00,33.8,-1.1,31.00,West,266,4.0,15.0,22,0.00,,,0.00,Weather View 32 v70,2013-02-04 15:43:00,
2013-02-04 08:48:00,33.8,-1.1,31.00,South,169,0.0,15.0,22,0.00,,,0.00,Weather View 32 v70,2013-02-04 15:48:00,
2013-02-04 08:53:00,33.8,-1.1,31.00,SSW,200,0.0,15.0,22,0.00,,,0.00,Weather View 32 v70,2013-02-04 15:53:00,
2013-02-04 08:58:00,33.8,-1.1,31.00,South,169,0.0,15.0,22,0.00,,,0.00,Weather View 32 v70,2013-02-04 15:58:00,
2013-02-04 09:03:00,33.8,-1.1,31.00,SSE,149,0.0,15.0,22,0.00,,,0.00,Weather View 32 v70,2013-02-04 16:03:00,
2013-02-04 09:08:00,34.0,-0.9,31.00,SE,138,5.0,11.0,22,0.00,,,0.00,Weather View 32 v70,2013-02-04 16:08:00,
2013-02-04 09:13:00,34.0,-0.9,31.00,SE,138,0.0,11.0,22,0.00,,,0.00,Weather View 32 v70,2013-02-04 16:13:00,
2013-02-04 09:18:00,34.2,-0.8,31.00,East,95,3.0,11.0,22,0.00,,,0.00,Weather View 32 v70,2013-02-04 16:18:00,
2013-02-04 09:22:00,34.5,-0.4,31.00,East,81,6.0,11.0,22,0.00,,,0.00,Weather View 32 v70,2013-02-04 16:22:00,
2013-02-04 09:28:00,34.5,-0.4,31.00,North,0,0.0,6.0,22,0.00,,,0.00,Weather View 32 v70,2013-02-04 16:28:00,
2013-02-04 09:33:00,34.5,-0.4,31.00,SSE,148,8.0,8.0,22,0.00,,,0.00,Weather View 32 v70,2013-02-04 16:33:00,
2013-02-04 09:38:00,34.5,-0.4,31.00,ESE,105,0.0,8.0,22,0.00,,,0.00,Weather View 32 v70,2013-02-04 16:38:00,
2013-02-04 09:43:00,34.5,-0.4,31.00,SW,229,4.0,8.0,22,0.00,,,0.00,Weather View 32 v70,2013-02-04 16:43:00,
2013-02-04 09:48:00,34.2,-0.8,31.00,SSE,153,6.0,17.0,22,0.00,,,0.00,Weather View 32 v70,2013-02-04 16:48:00,
2013-02-04 09:53:00,34.0,-0.9,31.00,SSE,167,9.0,17.0,22,0.00,,,0.00,Weather View 32 v70,2013-02-04 16:53:00,
2013-02-04 09:58:00,34.0,-0.9,31.00,SSE,159,5.0,17.0,22,0.00,,,0.00,Weather View 32 v70,2013-02-04 16:58:00,
2013-02-04 10:03:00,34.3,-0.6,31.00,ESE,123,6.0,17.0,22,0.00,,,0.00,Weather View 32 v70,2013-02-04 17:03:00,
2013-02-04 10:08:00,34.3,-0.6,31.00,SE,126,4.0,17.0,22,0.00,,,0.00,Weather View 32 v70,2013-02-04 17:08:00,
2013-02-04 10:13:00,34.7,-0.3,31.00,SE,124,6.0,17.0,22,0.00,,,0.00,Weather View 32 v70,2013-02-04 17:13:00,
2013-02-04 10:18:00,35.1,0.0,31.00,NNE,20,6.0,17.0,22,0.00,,,0.00,Weather View 32 v70,2013-02-04 17:18:00,
2013-02-04 10:23:00,35.4,0.3,31.00,NNE,27,3.0,17.0,22,0.00,,,0.00,Weather View 32 v70,2013-02-04 17:23:00,
2013-02-04 10:28:00,35.8,0.6,31.00,SE,138,0.0,17.0,22,0.00,,,0.00,Weather View 32 v70,2013-02-04 17:28:00,
2013-02-04 10:33:00,36.1,0.9,31.00,South,175,0.0,17.0,22,0.00,,,0.00,Weather View 32 v70,2013-02-04 17:33:00,
2013-02-04 10:38:00,36.3,1.1,31.00,ESE,103,4.0,17.0,22,0.00,,,0.00,Weather View 32 v70,2013-02-04 17:38:00,
2013-02-04 10:43:00,36.3,1.1,31.00,ESE,107,0.0,17.0,22,0.00,,,0.00,Weather View 32 v70,2013-02-04 17:43:00,
2013-02-04 10:48:00,36.1,0.9,31.00,NE,55,0.0,17.0,22,0.00,,,0.00,Weather View 32 v70,2013-02-04 17:48:00,
2013-02-04 10:53:00,36.0,0.8,31.00,SE,129,4.0,13.0,22,0.00,,,0.00,Weather View 32 v70,2013-02-04 17:53:00,
2013-02-04 10:58:00,35.6,0.5,31.00,SE,136,0.0,12.0,22,0.00,,,0.00,Weather View 32 v70,2013-02-04 17:58:00,
2013-02-04 11:03:00,35.6,0.5,31.00,East,90,3.0,12.0,22,0.00,,,0.00,Weather View 32 v70,2013-02-04 18:03:00,
2013-02-04 11:08:00,35.6,0.5,31.00,SSE,155,0.0,11.0,22,0.00,,,0.00,Weather View 32 v70,2013-02-04 18:08:00,
2013-02-04 11:13:00,35.6,0.5,31.00,ESE,123,4.0,11.0,22,0.00,,,0.00,Weather View 32 v70,2013-02-04 18:13:00,
2013-02-04 11:18:00,35.6,0.5,31.00,ESE,122,5.0,11.0,22,0.00,,,0.00,Weather View 32 v70,2013-02-04 18:18:00,
2013-02-04 11:23:00,35.6,0.5,31.00,East,86,0.0,11.0,22,0.00,,,0.00,Weather View 32 v70,2013-02-04 18:23:00,
2013-02-04 11:28:00,35.4,0.3,31.00,SE,143,8.0,11.0,22,0.00,,,0.00,Weather View 32 v70,2013-02-04 18:28:00,
2013-02-04 11:33:00,35.4,0.3,31.00,SSE,150,5.0,11.0,22,0.00,,,0.00,Weather View 32 v70,2013-02-04 18:33:00,
2013-02-04 11:38:00,35.4,0.3,31.00,NE,53,0.0,11.0,22,0.00,,,0.00,Weather View 32 v70,2013-02-04 18:38:00,
2013-02-04 11:43:00,35.2,0.2,31.00,East,101,0.0,11.0,22,0.00,,,0.00,Weather View 32 v70,2013-02-04 18:43:00,
2013-02-04 11:48:00,35.2,0.2,31.00,South,180,0.0,11.0,22,0.00,,,0.00,Weather View 32 v70,2013-02-04 18:48:00,
2013-02-04 11:53:00,35.1,0.0,31.00,SSE,148,3.0,9.0,22,0.00,,,0.00,Weather View 32 v70,2013-02-04 18:53:00,
2013-02-04 11:58:00,35.1,2.7,31.00,SE,126,3.0,9.0,25,0.00,,,0.00,Weather View 32 v70,2013-02-04 18:58:00,
2013-02-04 12:03:00,35.1,0.0,31.00,ESE,111,6.0,9.0,22,0.00,,,0.00,Weather View 32 v70,2013-02-04 19:03:00,
2013-02-04 12:08:00,35.2,0.2,31.00,SE,137,3.0,10.0,22,0.00,,,0.00,Weather View 32 v70,2013-02-04 19:08:00,
2013-02-04 12:13:00,35.6,0.5,31.00,NE,39,0.0,10.0,22,0.00,,,0.00,Weather View 32 v70,2013-02-04 19:13:00,
2013-02-04 12:18:00,36.0,0.8,31.00,SE,138,4.0,10.0,22,0.00,,,0.00,Weather View 32 v70,2013-02-04 19:18:00,
2013-02-04 12:23:00,36.3,1.1,31.00,SW,223,3.0,10.0,22,0.00,,,0.00,Weather View 32 v70,2013-02-04 19:23:00,
2013-02-04 12:28:00,36.5,1.2,31.00,WSW,251,3.0,10.0,22,0.00,,,0.00,Weather View 32 v70,2013-02-04 19:28:00,
2013-02-04 12:33:00,36.3,1.1,31.00,SW,218,2.0,10.0,22,0.00,,,0.00,Weather View 32 v70,2013-02-04 19:33:00,
2013-02-04 12:37:00,36.1,0.9,31.00,South,174,0.0,10.0,22,0.00,,,0.00,Weather View 32 v70,2013-02-04 19:37:00,
2013-02-04 12:42:00,36.3,1.1,31.00,SE,143,6.0,10.0,22,0.00,,,0.00,Weather View 32 v70,2013-02-04 19:42:00,
2013-02-04 12:47:00,36.7,1.4,31.00,SSW,197,3.0,10.0,22,0.00,,,0.00,Weather View 32 v70,2013-02-04 19:47:00,
2013-02-04 12:52:00,37.0,1.7,31.00,East,86,8.0,10.0,22,0.00,,,0.00,Weather View 32 v70,2013-02-04 19:52:00,
2013-02-04 12:57:00,37.9,1.4,31.00,ESE,103,4.0,11.0,21,0.00,,,0.00,Weather View 32 v70,2013-02-04 19:57:00,
2013-02-04 13:02:00,37.9,1.4,31.00,SSW,212,5.0,11.0,21,0.00,,,0.00,Weather View 32 v70,2013-02-04 20:02:00,
2013-02-04 13:07:00,37.6,1.1,31.00,SW,217,3.0,11.0,21,0.00,,,0.00,Weather View 32 v70,2013-02-04 20:07:00,
2013-02-04 13:12:00,37.0,1.7,31.00,SW,214,9.0,11.0,22,0.00,,,0.00,Weather View 32 v70,2013-02-04 20:12:00,
2013-02-04 13:17:00,37.0,1.7,31.00,SW,227,3.0,17.0,22,0.00,,,0.00,Weather View 32 v70,2013-02-04 20:17:00,
2013-02-04 13:22:00,37.2,1.8,31.00,WSW,247,7.0,17.0,22,0.00,,,0.00,Weather View 32 v70,2013-02-04 20:22:00,
2013-02-04 13:27:00,37.6,1.1,31.00,SW,229,3.0,17.0,21,0.00,,,0.00,Weather View 32 v70,2013-02-04 20:27:00,
2013-02-04 13:32:00,38.3,1.7,31.00,SE,137,2.0,17.0,21,0.00,,,0.00,Weather View 32 v70,2013-02-04 20:32:00,
2013-02-04 13:37:00,38.3,1.7,31.00,SW,214,8.0,17.0,21,0.00,,,0.00,Weather View 32 v70,2013-02-04 20:37:00,
2013-02-04 13:42:00,39.0,2.3,31.00,ENE,62,3.0,17.0,21,0.00,,,0.00,Weather View 32 v70,2013-02-04 20:42:00,
2013-02-04 13:47:00,38.8,2.2,31.00,SE,133,6.0,17.0,21,0.00,,,0.00,Weather View 32 v70,2013-02-04 20:47:00,
2013-02-04 13:52:00,38.7,2.0,31.00,West,259,8.0,17.0,21,0.00,,,0.00,Weather View 32 v70,2013-02-04 20:52:00,
2013-02-04 13:57:00,37.8,1.3,31.00,East,92,5.0,17.0,21,0.00,,,0.00,Weather View 32 v70,2013-02-04 20:57:00,
2013-02-04 14:02:00,37.6,1.1,31.00,ESE,123,4.0,17.0,21,0.00,,,0.00,Weather View 32 v70,2013-02-04 21:02:00,
2013-02-04 14:07:00,37.2,1.8,31.00,ENE,57,6.0,17.0,22,0.00,,,0.00,Weather View 32 v70,2013-02-04 21:07:00,
2013-02-04 14:12:00,37.0,1.7,31.00,SSE,163,3.0,17.0,22,0.00,,,0.00,Weather View 32 v70,2013-02-04 21:12:00,
2013-02-04 14:17:00,37.0,1.7,31.00,East,82,2.0,10.0,22,0.00,,,0.00,Weather View 32 v70,2013-02-04 21:17:00,
2013-02-04 14:22:00,37.0,1.7,31.00,SE,129,2.0,10.0,22,0.00,,,0.00,Weather View 32 v70,2013-02-04 21:22:00,
2013-02-04 14:27:00,36.9,1.5,31.00,ESE,123,6.0,10.0,22,0.00,,,0.00,Weather View 32 v70,2013-02-04 21:27:00,
2013-02-04 14:32:00,37.0,1.7,31.00,ESE,121,9.0,10.0,22,0.00,,,0.00,Weather View 32 v70,2013-02-04 21:32:00,
2013-02-04 14:37:00,37.0,1.7,31.00,West,277,4.0,10.0,22,0.00,,,0.00,Weather View 32 v70,2013-02-04 21:37:00,
2013-02-04 14:42:00,37.2,1.8,31.00,SSW,192,6.0,14.0,22,0.00,,,0.00,Weather View 32 v70,2013-02-04 21:42:00,
2013-02-04 14:47:00,37.2,1.8,31.00,NNW,335,8.0,14.0,22,0.00,,,0.00,Weather View 32 v70,2013-02-04 21:47:00,
2013-02-04 14:52:00,36.9,1.5,31.00,SE,130,7.0,14.0,22,0.00,,,0.00,Weather View 32 v70,2013-02-04 21:52:00,
2013-02-04 14:57:00,37.0,1.7,31.00,ENE,59,0.0,14.0,22,0.00,,,0.00,Weather View 32 v70,2013-02-04 21:57:00,
2013-02-04 15:02:00,36.7,1.4,31.00,NNE,26,0.0,15.0,22,0.00,,,0.00,Weather View 32 v70,2013-02-04 22:02:00,
2013-02-04 15:07:00,36.5,1.2,31.00,SSW,207,3.0,15.0,22,0.00,,,0.00,Weather View 32 v70,2013-02-04 22:07:00,
2013-02-04 15:12:00,36.5,1.2,31.00,WSW,251,4.0,15.0,22,0.00,,,0.00,Weather View 32 v70,2013-02-04 22:12:00,
2013-02-04 15:17:00,36.5,1.2,31.00,NNW,339,4.0,15.0,22,0.00,,,0.00,Weather View 32 v70,2013-02-04 22:17:00,
2013-02-04 15:22:00,36.5,1.2,31.00,South,177,5.0,15.0,22,0.00,,,0.00,Weather View 32 v70,2013-02-04 22:22:00,
2013-02-04 15:27:00,36.5,1.2,31.00,WSW,243,3.0,15.0,22,0.00,,,0.00,Weather View 32 v70,2013-02-04 22:27:00,
2013-02-04 15:32:00,36.5,1.2,31.00,SSE,154,11.0,15.0,22,0.00,,,0.00,Weather View 32 v70,2013-02-04 22:32:00,
2013-02-04 15:37:00,36.5,1.2,31.00,WNW,290,0.0,15.0,22,0.00,,,0.00,Weather View 32 v70,2013-02-04 22:37:00,
2013-02-04 15:42:00,36.7,1.4,31.00,ENE,70,3.0,15.0,22,0.00,,,0.00,Weather View 32 v70,2013-02-04 22:42:00,
2013-02-04 15:47:00,37.0,1.7,31.00,SE,128,9.0,15.0,22,0.00,,,0.00,Weather View 32 v70,2013-02-04 22:47:00,
2013-02-04 15:52:00,37.4,1.0,31.00,SE,145,5.0,15.0,21,0.00,,,0.00,Weather View 32 v70,2013-02-04 22:52:00,
2013-02-04 15:57:00,37.4,1.0,31.00,SSW,211,6.0,15.0,21,0.00,,,0.00,Weather View 32 v70,2013-02-04 22:57:00,
2013-02-04 16:02:00,37.4,1.0,31.00,SW,233,6.0,15.0,21,0.00,,,0.00,Weather View 32 v70,2013-02-04 23:02:00,
2013-02-04 16:07:00,37.0,1.7,31.00,ESE,106,6.0,15.0,22,0.00,,,0.00,Weather View 32 v70,2013-02-04 23:07:00,
2013-02-04 16:12:00,36.9,1.5,31.00,South,177,8.0,15.0,22,0.00,,,0.00,Weather View 32 v70,2013-02-04 23:12:00,
2013-02-04 16:17:00,36.7,1.4,31.00,SW,231,9.0,15.0,22,0.00,,,0.00,Weather View 32 v70,2013-02-04 23:17:00,
2013-02-04 16:22:00,36.5,1.2,31.00,SSW,213,5.0,15.0,22,0.00,,,0.00,Weather View 32 v70,2013-02-04 23:22:00,
2013-02-04 16:27:00,36.3,1.1,31.00,ESE,118,6.0,15.0,22,0.00,,,0.00,Weather View 32 v70,2013-02-04 23:27:00,
2013-02-04 16:32:00,36.1,0.9,31.00,South,183,4.0,15.0,22,0.00,,,0.00,Weather View 32 v70,2013-02-04 23:32:00,
2013-02-04 16:37:00,36.0,0.8,31.00,SE,143,6.0,15.0,22,0.00,,,0.00,Weather View 32 v70,2013-02-04 23:37:00,
2013-02-04 16:42:00,35.8,0.6,31.00,SW,227,5.0,15.0,22,0.00,,,0.00,Weather View 32 v70,2013-02-04 23:42:00,
2013-02-04 16:47:00,35.6,0.5,31.00,West,259,4.0,15.0,22,0.00,,,0.00,Weather View 32 v70,2013-02-04 23:47:00,
2013-02-04 16:52:00,35.2,0.2,31.00,NNW,340,4.0,15.0,22,0.00,,,0.00,Weather View 32 v70,2013-02-04 23:52:00,
2013-02-04 16:57:00,35.1,0.0,31.00,South,183,9.0,15.0,22,0.00,,,0.00,Weather View 32 v70,2013-02-04 23:57:00,
2013-02-04 17:04:00,34.7,-0.3,31.00,East,98,8.0,15.0,22,0.00,,,0.00,Weather View 32 v70,2013-02-05 00:04:00,
2013-02-04 17:09:00,34.7,-0.3,31.00,South,172,5.0,15.0,22,0.00,,,0.00,Weather View 32 v70,2013-02-05 00:09:00,
2013-02-04 17:14:00,34.3,-0.6,31.00,West,276,6.0,17.0,22,0.00,,,0.00,Weather View 32 v70,2013-02-05 00:14:00,
2013-02-04 17:19:00,34.0,-0.9,31.00,South,184,6.0,17.0,22,0.00,,,0.00,Weather View 32 v70,2013-02-05 00:19:00,
2013-02-04 17:24:00,34.0,1.8,31.00,WNW,284,4.0,17.0,25,0.00,,,0.00,Weather View 32 v70,2013-02-05 00:24:00,
2013-02-04 17:29:00,34.0,1.8,31.00,SSE,152,8.0,17.0,25,0.00,,,0.00,Weather View 32 v70,2013-02-05 00:29:00,
2013-02-04 17:34:00,34.0,1.8,31.00,NNW,333,4.0,17.0,25,0.00,,,0.00,Weather View 32 v70,2013-02-05 00:34:00,
2013-02-04 17:39:00,34.0,1.8,31.00,East,81,5.0,17.0,25,0.00,,,0.00,Weather View 32 v70,2013-02-05 00:39:00,
2013-02-04 17:44:00,33.6,1.5,31.00,NNW,330,6.0,17.0,25,0.00,,,0.00,Weather View 32 v70,2013-02-05 00:44:00,
2013-02-04 17:49:00,33.8,1.7,31.00,West,275,8.0,17.0,25,0.00,,,0.00,Weather View 32 v70,2013-02-05 00:49:00,
2013-02-04 17:54:00,33.6,1.5,31.00,NNW,342,11.0,17.0,25,0.00,,,0.00,Weather View 32 v70,2013-02-05 00:54:00,
2013-02-04 17:59:00,33.6,1.5,31.00,SSE,155,3.0,17.0,25,0.00,,,0.00,Weather View 32 v70,2013-02-05 00:59:00,
2013-02-04 18:04:00,33.8,1.7,31.00,SSW,208,9.0,17.0,25,0.00,,,0.00,Weather View 32 v70,2013-02-05 01:04:00,
2013-02-04 18:09:00,33.8,1.7,31.00,ESE,113,8.0,26.0,25,0.00,,,0.00,Weather View 32 v70,2013-02-05 01:09:00,
2013-02-04 18:14:00,33.8,1.7,31.00,SSW,203,6.0,26.0,25,0.00,,,0.00,Weather View 32 v70,2013-02-05 01:14:00,
2013-02-04 18:19:00,34.0,1.8,31.00,South,179,4.0,26.0,25,0.00,,,0.00,Weather View 32 v70,2013-02-05 01:19:00,
2013-02-04 18:24:00,33.6,1.5,31.00,SSW,194,3.0,26.0,25,0.00,,,0.00,Weather View 32 v70,2013-02-05 01:24:00,
2013-02-04 18:29:00,33.4,3.8,31.00,SSE,156,0.0,26.0,28,0.00,,,0.00,Weather View 32 v70,2013-02-05 01:29:00,
2013-02-04 18:34:00,33.6,4.0,31.00,East,88,3.0,26.0,28,0.00,,,0.00,Weather View 32 v70,2013-02-05 01:34:00,
2013-02-04 18:39:00,33.1,3.5,31.00,ENE,57,4.0,26.0,28,0.00,,,0.00,Weather View 32 v70,2013-02-05 01:39:00,
2013-02-04 18:44:00,33.1,3.5,31.00,SE,139,0.0,26.0,28,0.00,,,0.00,Weather View 32 v70,2013-02-05 01:44:00,
2013-02-04 18:49:00,33.1,5.0,31.00,NNE,21,5.0,26.0,30,0.00,,,0.00,Weather View 32 v70,2013-02-05 01:49:00,
2013-02-04 18:54:00,33.4,5.3,31.00,South,181,6.0,26.0,30,0.00,,,0.00,Weather View 32 v70,2013-02-05 01:54:00,
2013-02-04 18:59:00,33.6,5.5,31.00,NNE,12,5.0,26.0,30,0.00,,,0.00,Weather View 32 v70,2013-02-05 01:59:00,
2013-02-04 19:04:00,33.4,5.3,31.00,South,178,0.0,26.0,30,0.00,,,0.00,Weather View 32 v70,2013-02-05 02:04:00,
2013-02-04 19:09:00,33.1,5.0,31.00,SSE,166,0.0,20.0,30,0.00,,,0.00,Weather View 32 v70,2013-02-05 02:09:00,
2013-02-04 19:14:00,33.1,5.7,31.00,South,184,13.0,20.0,31,0.00,,,0.00,Weather View 32 v70,2013-02-05 02:14:00,
2013-02-04 19:19:00,33.1,5.0,31.00,North,0,11.0,15.0,30,0.00,,,0.00,Weather View 32 v70,2013-02-05 02:19:00,
2013-02-04 19:24:00,33.4,6.0,31.00,SW,223,15.0,15.0,31,0.00,,,0.00,Weather View 32 v70,2013-02-05 02:24:00,
2013-02-04 19:29:00,33.4,5.3,31.00,SW,228,5.0,16.0,30,0.00,,,0.00,Weather View 32 v70,2013-02-05 02:29:00,
2013-02-04 19:34:00,33.3,5.1,31.00,SSE,168,5.0,16.0,30,0.00,,,0.00,Weather View 32 v70,2013-02-05 02:34:00,
2013-02-04 19:39:00,33.3,5.1,31.00,SSW,195,17.0,18.0,30,0.00,,,0.00,Weather View 32 v70,2013-02-05 02:39:00,
2013-02-04 19:44:00,33.1,5.7,31.00,South,172,5.0,18.0,31,0.00,,,0.00,Weather View 32 v70,2013-02-05 02:44:00,
2013-02-04 19:49:00,33.3,5.1,31.00,South,181,3.0,19.0,30,0.00,,,0.00,Weather View 32 v70,2013-02-05 02:49:00,
2013-02-04 19:54:00,33.3,5.1,31.00,SSW,205,5.0,19.0,30,0.00,,,0.00,Weather View 32 v70,2013-02-05 02:54:00,
2013-02-04 19:59:00,32.9,5.5,31.00,SSE,159,4.0,19.0,31,0.00,,,0.00,Weather View 32 v70,2013-02-05 02:59:00,
2013-02-04 20:04:00,32.9,5.5,31.00,SSE,149,11.0,19.0,31,0.00,,,0.00,Weather View 32 v70,2013-02-05 03:04:00,
2013-02-04 20:09:00,33.1,5.7,31.00,WNW,291,2.0,19.0,31,0.00,,,0.00,Weather View 32 v70,2013-02-05 03:09:00,
2013-02-04 20:14:00,33.1,5.7,31.00,SSW,205,5.0,19.0,31,0.00,,,0.00,Weather View 32 v70,2013-02-05 03:14:00,
2013-02-04 20:19:00,33.8,5.6,31.00,South,176,4.0,19.0,30,0.00,,,0.00,Weather View 32 v70,2013-02-05 03:19:00,
2013-02-04 20:24:00,33.1,5.7,31.00,South,173,4.0,19.0,31,0.00,,,0.00,Weather View 32 v70,2013-02-05 03:24:00,
2013-02-04 20:29:00,32.7,5.4,31.00,SSE,155,4.0,19.0,31,0.00,,,0.00,Weather View 32 v70,2013-02-05 03:29:00,
2013-02-04 20:34:00,32.2,4.9,31.00,South,188,0.0,19.0,31,0.00,,,0.00,Weather View 32 v70,2013-02-05 03:34:00,
2013-02-04 20:39:00,32.2,4.9,31.00,SW,234,0.0,19.0,31,0.00,,,0.00,Weather View 32 v70,2013-02-05 03:39:00,
2013-02-04 20:44:00,32.0,4.8,31.00,WNW,293,4.0,19.0,31,0.00,,,0.00,Weather View 32 v70,2013-02-05 03:44:00,
2013-02-04 20:49:00,32.0,4.8,31.00,NNW,338,6.0,17.0,31,0.00,,,0.00,Weather View 32 v70,2013-02-05 03:49:00,
2013-02-04 20:54:00,32.4,5.1,31.00,NW,306,4.0,17.0,31,0.00,,,0.00,Weather View 32 v70,2013-02-05 03:54:00,
2013-02-04 20:58:00,32.2,4.9,31.00,SSW,205,4.0,17.0,31,0.00,,,0.00,Weather View 32 v70,2013-02-05 03:58:00,
2013-02-04 21:03:00,32.5,5.2,31.00,SW,215,0.0,15.0,31,0.00,,,0.00,Weather View 32 v70,2013-02-05 04:03:00,
2013-02-04 21:08:00,32.5,5.2,31.00,SE,126,0.0,15.0,31,0.00,,,0.00,Weather View 32 v70,2013-02-05 04:08:00,
2013-02-04 21:13:00,33.1,5.7,31.00,SSW,203,6.0,15.0,31,0.00,,,0.00,Weather View 32 v70,2013-02-05 04:13:00,
2013-02-04 21:18:00,33.1,6.4,31.00,SSW,203,8.0,16.0,32,0.00,,,0.00,Weather View 32 v70,2013-02-05 04:18:00,
2013-02-04 21:23:00,33.1,5.7,31.00,WSW,249,4.0,16.0,31,0.00,,,0.00,Weather View 32 v70,2013-02-05 04:23:00,
2013-02-04 21:30:00,33.1,6.4,31.00,WSW,255,8.0,16.0,32,0.00,,,0.00,Weather View 32 v70,2013-02-05 04:30:00,
2013-02-04 21:36:00,33.1,6.4,31.00,South,190,4.0,17.0,32,0.00,,,0.00,Weather View 32 v70,2013-02-05 04:36:00,
2013-02-04 21:41:00,33.1,6.4,31.00,NE,47,0.0,17.0,32,0.00,,,0.00,Weather View 32 v70,2013-02-05 04:41:00,
2013-02-04 21:46:00,32.9,6.2,31.00,South,182,4.0,17.0,32,0.00,,,0.00,Weather View 32 v70,2013-02-05 04:46:00,
2013-02-04 21:51:00,32.5,5.9,31.00,WSW,239,6.0,17.0,32,0.00,,,0.00,Weather View 32 v70,2013-02-05 04:51:00,
2013-02-04 21:58:00,32.0,5.4,31.00,West,270,5.0,17.0,32,0.00,,,0.00,Weather View 32 v70,2013-02-05 04:58:00,
2013-02-04 22:00:00,32.5,5.9,31.00,SSE,165,5.0,17.0,32,0.00,,,0.00,Weather View 32 v70,2013-02-05 05:00:00,
2013-02-04 22:05:00,32.2,5.6,31.00,NNE,12,3.0,17.0,32,0.00,,,0.00,Weather View 32 v70,2013-02-05 05:05:00,
2013-02-04 22:10:00,32.2,5.6,31.00,SSE,167,11.0,17.0,32,0.00,,,0.00,Weather View 32 v70,2013-02-05 05:10:00,
2013-02-04 22:15:00,32.4,6.4,31.00,SW,235,3.0,17.0,33,0.00,,,0.00,Weather View 32 v70,2013-02-05 05:15:00,
2013-02-04 22:20:00,32.4,5.8,31.00,WSW,240,3.0,17.0,32,0.00,,,0.00,Weather View 32 v70,2013-02-05 05:20:00,
2013-02-04 22:25:00,32.4,6.4,31.00,SSW,203,4.0,17.0,33,0.00,,,0.00,Weather View 32 v70,2013-02-05 05:25:00,
2013-02-04 22:30:00,32.2,6.3,31.00,SW,229,5.0,17.0,33,0.00,,,0.00,Weather View 32 v70,2013-02-05 05:30:00,
2013-02-04 22:35:00,32.2,6.3,31.00,SSE,165,3.0,17.0,33,0.00,,,0.00,Weather View 32 v70,2013-02-05 05:35:00,
2013-02-04 22:40:00,32.5,6.6,31.00,SE,143,11.0,15.0,33,0.00,,,0.00,Weather View 32 v70,2013-02-05 05:40:00,
2013-02-04 22:45:00,32.0,6.1,31.00,WNW,292,6.0,15.0,33,0.00,,,0.00,Weather View 32 v70,2013-02-05 05:45:00,
2013-02-04 22:50:00,31.6,6.5,31.00,SSW,194,3.0,15.0,34,0.00,,,0.00,Weather View 32 v70,2013-02-05 05:50:00,
2013-02-04 22:55:00,31.8,6.6,31.00,SSE,163,3.0,15.0,34,0.00,,,0.00,Weather View 32 v70,2013-02-05 05:55:00,
2013-02-04 23:00:00,32.0,6.8,31.00,SE,130,3.0,15.0,34,0.00,,,0.00,Weather View 32 v70,2013-02-05 06:00:00,
2013-02-04 23:05:00,32.4,7.1,31.00,SSW,199,6.0,15.0,34,0.00,,,0.00,Weather View 32 v70,2013-02-05 06:05:00,
2013-02-04 23:10:00,32.0,6.8,31.00,NE,43,0.0,15.0,34,0.00,,,0.00,Weather View 32 v70,2013-02-05 06:10:00,
2013-02-04 23:15:00,30.9,6.5,31.00,East,79,0.0,15.0,35,0.00,,,0.00,Weather View 32 v70,2013-02-05 06:15:00,
2013-02-04 23:20:00,31.6,7.1,31.00,ESE,105,0.0,13.0,35,0.00,,,0.00,Weather View 32 v70,2013-02-05 06:20:00,
2013-02-04 23:25:00,31.3,7.4,31.00,SE,127,4.0,13.0,36,0.00,,,0.00,Weather View 32 v70,2013-02-05 06:25:00,
2013-02-04 23:30:00,30.2,8.8,31.00,WNW,294,0.0,13.0,40,0.00,,,0.00,Weather View 32 v70,2013-02-05 06:30:00,
2013-02-04 23:35:00,30.2,8.2,31.00,NNW,329,0.0,13.0,39,0.00,,,0.00,Weather View 32 v70,2013-02-05 06:35:00,
2013-02-04 23:40:00,30.6,8.5,31.00,SSE,163,0.0,13.0,39,0.00,,,0.00,Weather View 32 v70,2013-02-05 06:40:00,
2013-02-04 23:45:00,30.7,7.5,31.00,SW,235,8.0,9.0,37,0.00,,,0.00,Weather View 32 v70,2013-02-05 06:45:00,
2013-02-04 23:50:00,31.8,7.9,31.00,WSW,257,0.0,10.0,36,0.00,,,0.00,Weather View 32 v70,2013-02-05 06:50:00,
2013-02-04 23:55:00,32.9,7.6,31.00,WNW,287,0.0,10.0,34,0.00,,,0.00,Weather View 32 v70,2013-02-05 06:55:00,